Location: Unspecified
(0.0000°N, 0.0000°E)
Time: 17:50:41
(UTC+00:00)

USA 184 - Visible Passes

Search period start: 23 June 2018 00:00
Search period end: 03 July 2018 00:00
Orbit: 1954 x 38402 km, 62.8° (Epoch: 03 June)

Date Brightness Start Highest point End Pass type
(mag) Time Alt. Az. Time Alt. Az. Time Alt. Az.
23 Jun 6.7 22:17:47 10° SW 22:42:20 63° WNW 09:44:02 10° SSE visible
24 Jun 6.7 22:13:26 10° SW 22:37:59 63° WNW 09:39:41 10° SSE visible
25 Jun 6.7 22:09:05 10° SW 22:33:38 63° WNW 09:35:20 10° SSE visible
26 Jun 6.7 22:04:44 10° SW 22:29:17 63° WNW 09:30:58 10° SSE visible
27 Jun 6.7 22:00:24 10° SW 22:24:56 63° WNW 09:26:37 10° SSE visible
28 Jun 6.7 21:56:02 10° SW 22:20:34 63° WNW 09:22:16 10° SSE visible
29 Jun 6.7 21:51:41 10° SW 22:16:13 63° WNW 09:17:55 10° SSE visible
30 Jun 6.7 21:47:20 10° SW 22:11:52 63° WNW 09:13:34 10° SSE visible
01 Jul 6.7 21:42:59 10° SW 22:07:31 63° WNW 09:09:13 10° SSE visible
